#timestamp,LO_Frequency,Hit,StdDev 
1514041215.6,286047003.1,N
1514041235.4,286047003.8,N
1514041255.3,286047001.2,N
1514041275.1,286047002.1,N
1514041295.8,286047002.0,N
1514041315.7,286046999.0,N
1514041335.5,286046998.4,N
1514041355.3,286047002.6,N
1514041375.2,286047002.5,N
1514041395.9,286047004.2,N
1514041415.7,286047003.8,N
1514041435.6,286047001.3,N
1514041455.4,286047003.1,N
1514041475.2,286047007.8,N
1514041495.1,286047011.9,Y
1514041496.0,286047011.9,P
1514041515.8,286047010.0,N
1514041535.6,286047010.6,N
1514041555.5,286047010.3,N
1514041575.3,286047013.2,N
1514041595.1,286047014.4,Y
1514041615.9,286047004.6,P
1514041635.7,286047007.1,P
1514041655.5,286047007.6,P
1514041675.3,286047002.5,N
1514041695.2,286047002.5,N
1514041715.0,286046999.8,N
1514041715.9,286046999.8,N
1514041735.7,286047002.9,N
1514041755.6,286047004.5,N
1514041775.4,286047007.2,N
1514041795.2,286047003.8,N
1514041815.1,286047002.4,N
1514041816.0,286047002.4,N
1514041835.8,286047005.5,N
1514041855.6,286047007.9,N
1514041875.5,286047009.1,Y
1514041895.3,286046998.0,P
1514041915.1,286046996.3,N
1514041935.9,286046999.1,N
1514041955.7,286046998.5,N
1514041975.5,286046996.6,N
1514041995.4,286046999.9,N
1514042015.2,286047004.0,N
1514042035.0,286046999.9,N
1514042035.9,286046999.9,N
1514042055.8,286046996.5,N
1514042075.6,286046995.1,N
1514042095.4,286046998.5,N
1514042115.2,286046996.9,N
1514042135.1,286046997.9,N
1514042136.0,286046997.9,N
1514042155.8,286046994.2,N
1514042175.6,286046991.7,Y
1514042195.5,286046995.3,P
1514042215.3,286046996.0,N
1514042235.1,286046992.7,P
1514042255.9,286046993.0,Y
1514042275.7,286046998.5,P
1514042295.5,286046997.5,N
1514042315.4,286046995.5,P
1514042335.2,286046998.2,N
1514042355.0,286047001.4,N
1514042355.9,286047001.4,N
1514042375.8,286047000.4,N
1514042395.6,286046991.7,Y
1514042415.4,286046992.4,P
1514042435.3,286046988.5,P
1514042455.1,286046987.7,N
1514042475.8,286046989.3,N
1514042495.7,286046994.3,N
1514042515.5,286046995.1,N
1514042535.1,286046998.9,N
1514042536.0,286046998.9,N
1514042555.8,286046993.5,N
1514042575.7,286046995.5,N
1514042595.5,286046997.3,N
1514042615.3,286046993.4,N
1514042635.1,286046989.3,N
1514042655.9,286046990.7,N
1514042675.7,286046988.8,Y
1514042695.5,286046995.1,P
1514042715.4,286046994.9,P
1514042735.2,286046996.9,P
1514042755.0,286046999.6,N
1514042755.9,286046999.6,N
1514042775.8,286046997.0,N
1514042795.6,286046996.8,N
1514042815.4,286046998.5,N
1514042835.3,286047001.8,N
1514042855.1,286047003.0,N
1514042875.8,286047001.5,N
1514042895.7,286046998.8,N
1514042915.5,286046997.6,N
1514042935.3,286046993.8,N
1514042955.2,286046990.8,Y
1514042975.9,286046990.4,P
1514042995.7,286046989.3,N
1514043015.6,286046993.0,N
1514043035.4,286046993.6,N
1514043055.2,286046995.9,N
1514043075.0,286047000.4,N
1514043076.0,286047000.4,N
1514043095.8,286047002.0,N
1514043115.6,286047000.3,N
1514043135.4,286046997.1,N
1514043155.3,286046993.9,N
1514043175.1,286046994.3,N
1514043195.8,286046997.8,N
1514043215.7,286046995.3,N
1514043235.5,286046994.6,N
1514043255.3,286046990.2,N
1514043275.2,286046994.8,N
1514043295.9,286046997.7,N
1514043315.7,286046996.7,N
1514043335.6,286046997.1,N
1514043355.4,286046998.9,N
1514043375.2,286046995.7,N
1514043395.1,286046989.4,Y
1514043396.0,286046989.4,P
1514043415.8,286046992.3,N
1514043435.6,286046995.2,N
1514043455.5,286047001.9,N
1514043475.3,286046999.3,N
1514043495.1,286046999.7,N
1514043515.8,286047003.9,N
1514043535.7,286047008.9,N
1514043555.5,286047011.1,N
1514043575.3,286047008.7,N
1514043595.2,286047001.6,N
1514043615.9,286047000.4,N
1514043635.7,286047001.7,N
1514043655.6,286047002.1,N
1514043675.4,286047001.1,N
1514043695.2,286046995.4,N
1514043715.1,286047001.0,N
1514043716.0,286047001.0,N
1514043735.8,286047000.1,N
1514043755.6,286046999.3,N
1514043775.4,286047000.8,N
1514043795.3,286047003.6,N
1514043815.1,286047004.4,N
1514043835.8,286047010.4,N
1514043855.7,286047015.1,N
1514043875.5,286047012.7,N
1514043895.3,286047012.4,N
1514043915.2,286047015.4,N
1514043935.9,286047017.7,N
1514043955.7,286047017.4,N
1514043975.6,286047022.7,Y
1514043995.4,286047021.9,P
1514044015.2,286047025.0,N
1514044035.1,286047024.1,N
1514044036.0,286047024.1,N
1514044055.8,286047028.0,Y
1514044075.6,286047013.0,P
1514044095.5,286047013.2,P
1514044115.3,286047015.3,P
1514044135.1,286047010.4,Y
1514044155.9,286046994.9,P
1514044175.7,286046994.0,N
1514044195.5,286046994.1,N
1514044215.4,286046992.0,N
1514044235.2,286046995.6,N
1514044255.0,286046996.3,N
1514044255.9,286046996.3,N
1514044275.8,286046990.3,N
1514044295.6,286046992.3,N
1514044315.4,286046994.3,N
1514044335.3,286046992.7,N
1514044355.1,286046994.8,N
1514044356.0,286046994.8,N
1514044375.8,286046991.6,N
1514044395.7,286046989.9,N
1514044415.5,286046987.5,N
1514044435.3,286046990.7,N
1514044455.1,286046990.3,N
1514044475.9,286046983.8,N
1514044495.7,286046980.1,Y
1514044515.6,286046985.7,P
1514044535.4,286046987.1,P
1514044555.2,286046988.2,P
1514044575.1,286046984.7,Y
1514044576.0,286046984.7,P
1514044595.8,286046995.8,N
1514044615.6,286046997.7,N
1514044635.4,286046998.0,N
1514044655.3,286046997.9,N
1514044675.1,286046999.4,N
1514044695.8,286047000.4,N
1514044715.7,286046998.3,N
1514044735.5,286046998.9,N
1514044755.3,286046997.9,N
1514044775.2,286046998.7,N
1514044795.9,286046999.5,N
